Tracking 29892 objects as of 21-Nov-2024
HD Live streaming from Space Station
objects crossing your sky now

STARLINK-1142

Track STARLINK-1142 now!
10-day predictions
STARLINK-1142 is classified as:


NORAD ID: 45093
Int'l Code: 2020-006BB
Perigee: 527.3 km
Apogee: 534.7 km
Inclination: 53.0 °
Period: 95.1 minutes
Semi major axis: 6901 km
RCS: Unknown
Launch date: January 29, 2020
Source: United States (US)
Launch site: AIR FORCE EASTERN TEST RANGE (AFETR)
Your satellite tracking list
Your tracking list is empty




NASA's NSSDC Master Catalog

Two Line Element Set (TLE):
1 45093U 20006BB  24325.08133373  .00029997  00000-0  16398-2 0  9998
2 45093  53.0469 214.4728 0005329 106.1227 254.0352 15.14056394265525
Source of the keplerian elements: AFSPC